Theta_e
341 348 348 351 352 351 350 351 352 353 354 355 355 354 355 355 354 354 354 354 353 352 350 349 348 347 346 345 345 345 347 348 351 350 348 347 346 347 346 344 345 343 343
344 350 347 350 351 350 350 351 352 353 354 355 354 354 354 354 353 354 354 352 351 349 349 348 347 346 345 344 343 342 343 344 347 351 349 347 346 347 345 345 345 344 343
344 350 351 349 350 350 350 351 352 353 354 354 354 354 353 353 353 353 352 350 349 349 348 347 346 345 344 343 342 341 341 340 343 349 349 345 346 346 345 345 344 343 343
345 350 351 348 349 349 349 350 351 353 353 353 353 353 353 352 352 352 351 350 349 349 347 347 346 344 343 342 341 340 339 340 342 346 346 344 343 345 344 344 343 342 342
344 347 350 347 347 349 349 350 350 351 350 351 351 352 352 352 351 351 350 349 350 349 347 346 345 343 342 341 339 338 341 342 342 342 344 346 345 345 344 343 343 342 342
343 345 346 345 346 348 349 349 350 350 349 349 349 351 351 351 351 350 349 349 350 349 347 345 343 342 340 339 336 336 342 342 340 346 344 344 346 344 343 342 342 341 341
342 345 350 343 346 348 349 350 349 348 347 348 349 349 350 350 350 349 348 349 350 349 347 344 342 340 338 336 334 340 341 342 347 344 343 344 347 345 343 342 341 341 340
343 347 348 346 346 347 348 348 346 346 346 346 347 347 348 348 348 348 348 349 348 347 346 343 341 338 337 334 335 339 339 341 343 344 344 344 345 345 344 342 341 341 340
345 347 349 349 349 345 344 343 343 343 344 345 345 346 346 345 345 346 347 347 346 344 344 341 338 336 335 334 336 335 336 339 344 344 342 343 344 344 342 343 342 341 340
344 345 347 348 349 351 351 341 340 341 342 342 343 343 342 342 343 344 344 345 344 343 341 338 336 333 331 333 334 334 335 338 344 343 343 342 344 343 341 341 341 342 341
343 343 344 346 348 350 350 347 342 341 341 341 343 341 339 345 346 346 343 342 342 341 338 335 332 329 330 332 332 333 335 340 341 341 341 339 342 341 339 338 338 339 342
344 343 342 345 347 349 346 349 348 346 346 346 346 348 346 347 344 342 342 339 339 338 335 332 328 329 329 335 336 333 340 339 341 339 336 338 340 338 338 338 339 339 342
345 345 344 344 346 347 345 346 345 345 345 345 347 348 348 345 345 344 343 341 342 335 335 329 326 329 329 332 334 337 337 339 338 337 332 335 338 336 336 337 338 340 342
344 344 344 344 345 347 344 344 345 344 345 345 345 348 346 344 343 344 342 341 340 336 334 331 328 327 329 328 331 334 336 335 336 336 331 329 334 336 334 335 337 337 338
344 345 346 346 345 344 346 345 345 345 345 346 346 346 348 345 343 343 341 339 336 334 331 327 324 323 326 328 331 332 333 333 332 332 331 328 333 334 334 333 333 333 334
344 347 348 347 342 341 343 346 345 346 346 345 344 346 346 344 343 342 340 338 335 332 328 325 322 322 324 327 329 331 330 329 328 328 329 331 328 330 331 331 329 331 330
343 346 343 342 342 342 340 342 344 345 344 344 343 345 345 344 343 341 339 337 334 331 327 323 323 324 324 326 327 327 326 326 326 328 330 330 324 323 324 323 322 323 326
342 343 344 342 342 344 339 339 341 344 342 342 344 344 344 345 342 340 339 336 333 327 323 320 321 322 324 324 323 323 323 324 325 326 328 324 323 321 319 320 320 320 320
340 342 342 343 341 340 342 340 341 342 342 342 343 342 343 343 338 337 338 337 333 326 322 320 320 322 321 322 321 321 321 322 324 323 325 326 322 322 321 316 316 317 317
338 337 337 338 341 339 339 338 338 338 339 341 340 340 343 339 335 333 334 337 332 325 321 320 320 322 321 321 317 317 318 319 321 322 323 323 322 322 321 319 317 315 315
328 331 333 333 336 337 337 333 332 331 332 333 336 338 339 338 337 335 330 333 331 324 320 321 320 320 319 321 316 315 315 316 318 320 321 320 320 320 319 318 316 315 314
317 320 322 327 332 335 336 337 333 332 333 332 333 332 333 333 332 329 328 329 331 326 322 321 320 318 318 319 313 312 308 310 313 315 317 317 318 316 315 313 311 311 313
313 315 316 319 326 333 335 338 333 329 326 330 331 331 331 331 330 329 329 330 331 329 323 322 322 320 316 317 318 312 307 306 308 311 313 313 313 311 310 308 307 307 307
311 314 314 315 317 321 332 333 335 331 329 332 334 335 333 331 331 329 328 327 327 327 326 324 322 322 319 315 316 316 316 315 307 303 309 310 311 309 309 307 306 304 304
311 312 314 313 313 316 318 324 327 328 330 331 331 332 332 333 329 328 327 325 324 321 322 322 322 324 322 318 317 315 313 312 313 308 303 302 304 307 308 306 305 303 303
308 309 312 312 311 314 315 317 318 320 323 323 324 326 327 329 330 327 325 324 321 319 319 320 319 321 324 322 318 318 314 309 307 308 306 303 300 303 306 304 303 303 302
Wind_Speed
13 18 15 15 13 14 13 13 12 13 15 15 15 15 15 15 14 14 13 11 10 11 12 12 12 11 10 10 10 8 8 7 7 8 9 10 10 9 8 3 5 11 8
16 19 16 15 15 15 15 14 14 13 15 16 16 15 14 14 14 13 12 11 10 11 11 11 11 11 10 9 9 8 8 6 6 7 8 10 9 8 8 8 13 10 8
17 18 18 14 15 15 16 15 15 15 16 17 16 15 14 14 13 13 13 11 11 11 11 11 11 10 9 8 8 7 6 5 5 5 8 4 11 8 8 7 7 8 8
17 16 18 14 15 15 15 15 15 15 15 15 16 15 14 13 12 13 12 11 10 12 11 11 11 9 8 7 7 6 5 4 5 8 10 7 9 8 7 7 7 7 6
17 18 17 15 15 16 15 14 14 15 15 14 15 15 14 13 12 11 11 10 10 11 11 12 11 9 7 5 5 4 5 5 6 11 7 4 8 9 7 5 8 9 12
17 16 18 14 16 17 17 16 15 13 13 13 14 14 13 13 12 11 10 10 11 11 11 11 10 9 6 5 4 3 4 7 10 10 6 5 3 9 7 7 8 8 9
15 13 17 11 15 17 17 16 15 13 12 13 14 14 13 12 11 10 9 8 8 10 11 11 9 7 5 4 3 5 6 8 12 7 6 5 10 8 8 6 6 7 8
13 14 16 12 10 12 14 15 14 13 12 11 11 12 12 11 11 10 8 9 10 10 9 9 8 7 6 3 3 5 5 8 7 6 5 6 8 8 6 7 5 5 7
12 13 13 15 14 8 7 10 12 12 12 11 11 10 10 10 9 9 8 7 10 9 10 8 6 5 5 5 4 4 4 7 5 5 6 6 6 7 6 5 6 7 7
12 12 13 13 13 14 13 8 8 9 11 10 10 10 10 10 9 8 8 8 9 8 9 9 7 5 4 5 5 4 2 6 7 6 4 8 7 9 6 4 4 6 8
11 13 13 13 13 13 12 12 10 9 9 10 10 9 11 10 11 12 5 11 7 8 8 8 7 7 6 5 5 3 8 6 4 2 6 8 9 10 6 4 2 5 9
15 16 15 15 14 13 11 12 13 12 11 12 12 13 10 8 9 8 9 8 8 9 9 8 8 8 10 6 6 5 7 2 4 1 7 6 9 9 8 7 6 1 10
11 11 14 14 13 14 11 9 8 8 9 10 13 10 9 8 7 8 7 8 9 11 9 10 9 8 5 4 5 3 3 5 1 2 8 5 7 9 10 12 11 8 11
13 14 13 14 12 11 8 8 9 8 9 9 10 14 9 7 8 9 7 9 8 8 8 8 6 5 7 6 6 5 5 4 4 3 7 5 3 11 12 14 16 17 15
10 10 11 11 11 10 13 9 10 9 9 10 9 11 10 10 9 8 8 7 8 8 8 8 7 8 8 9 8 8 7 5 4 2 3 2 4 12 14 14 15 16 16
8 8 9 10 10 9 10 12 9 9 10 7 9 9 11 9 7 8 8 8 8 8 8 8 8 8 8 8 9 10 9 6 5 4 4 6 7 12 14 14 14 15 14
8 8 8 8 10 11 10 11 9 10 10 8 10 11 13 10 7 9 8 8 7 7 8 8 9 9 8 8 10 8 7 8 7 7 8 7 10 13 14 15 11 10 12
9 8 10 9 11 12 10 8 8 10 8 9 8 9 13 13 12 10 9 8 8 7 8 7 9 9 9 9 9 9 8 7 8 8 10 7 6 8 11 13 13 10 10
6 7 8 8 9 10 10 9 8 10 8 8 7 8 12 13 11 7 9 9 10 9 9 9 9 9 9 9 8 7 7 7 9 8 8 11 8 7 7 11 16 10 9
7 4 4 5 3 6 7 7 6 5 5 8 6 8 11 11 12 10 9 12 11 10 10 10 11 10 9 9 8 8 6 6 7 7 9 8 6 7 7 7 9 7 6
13 10 8 4 3 4 5 4 4 6 6 6 5 7 8 7 12 14 9 10 12 12 13 14 12 13 11 10 10 8 6 6 6 7 8 8 9 8 7 7 5 7 6
12 11 11 9 7 3 5 5 4 3 4 6 5 6 7 8 9 9 11 10 15 12 14 14 15 12 11 12 10 10 9 7 8 8 7 7 9 7 7 7 7 6 7
11 11 11 10 10 9 4 4 3 3 2 4 7 8 11 12 12 12 12 12 12 13 13 16 16 18 14 14 16 9 8 8 11 7 9 8 9 8 8 7 7 7 7
8 7 9 9 10 10 10 3 6 6 7 6 7 7 9 13 14 13 13 13 13 11 13 16 16 16 15 16 15 14 5 4 9 8 10 9 9 8 9 8 9 7 7
8 9 9 9 9 9 8 7 6 8 9 7 8 11 11 10 12 13 13 12 12 11 14 15 17 18 15 14 15 15 12 9 10 8 12 10 7 9 9 7 7 7 7
7 8 8 10 9 9 10 9 8 8 9 8 9 8 8 7 7 11 12 12 12 13 13 13 16 18 17 16 15 15 14 13 10 7 7 14 10 8 9 8 8 7 6
Wind_Direction
158 151 163 152 147 136 131 123 122 127 133 133 132 133 134 134 132 131 133 134 133 133 129 123 118 115 113 111 107 104 97 88 81 97 102 101 95 92 86 49 282 82 72
150 153 168 155 149 142 134 130 129 131 132 132 133 135 134 135 135 136 135 130 133 139 131 124 121 119 117 113 108 106 103 102 98 106 113 109 95 90 80 44 28 68 62
152 157 169 157 154 147 139 136 134 137 137 136 135 134 137 138 138 136 134 135 145 137 136 130 126 123 121 116 113 113 117 121 122 135 209 146 97 90 83 72 63 61 58
152 153 164 159 157 149 142 141 141 139 139 139 138 138 140 139 138 136 136 141 147 147 144 136 131 126 124 121 121 126 132 152 164 194 206 117 104 101 88 81 66 51 68
154 161 151 161 158 152 147 146 144 144 145 144 141 140 142 142 141 140 140 145 149 153 149 139 135 134 135 129 126 131 146 179 192 220 128 130 109 109 101 79 114 72 39
158 161 138 162 160 155 152 153 151 152 149 145 142 143 144 146 148 149 149 154 159 158 145 136 142 140 142 135 134 134 156 171 190 213 122 110 82 108 101 77 67 64 61
156 155 159 162 161 158 158 157 154 155 151 150 150 148 148 150 149 148 159 176 185 143 134 140 143 146 145 139 142 138 155 193 225 171 144 134 92 120 109 93 80 79 73
159 151 157 159 160 161 160 156 155 154 151 153 152 150 152 153 151 152 167 180 148 124 121 140 146 155 145 140 151 147 165 230 203 155 164 123 102 119 116 119 102 89 86
160 163 161 172 167 148 155 157 154 153 153 156 154 149 145 144 149 150 157 145 135 143 129 146 145 150 144 128 141 154 185 252 200 160 167 109 113 113 116 138 144 137 116
169 171 171 174 176 176 175 160 154 155 155 155 153 153 148 147 152 154 148 142 139 140 142 149 146 138 123 115 124 140 196 258 216 172 157 98 132 112 101 114 154 165 142
176 181 181 181 181 181 182 170 161 165 160 155 164 152 155 182 176 161 127 129 147 139 141 143 135 127 126 105 111 154 221 219 187 100 84 110 118 103 77 59 55 193 163
187 189 189 188 186 185 189 174 188 183 185 189 188 177 196 183 190 196 135 141 149 136 134 138 135 146 198 169 151 190 232 68 231 133 84 87 88 85 74 48 35 256 168
201 198 193 191 192 195 196 188 191 189 194 196 197 184 197 183 173 191 169 179 177 177 176 179 170 198 188 202 165 197 105 210 157 114 84 63 109 109 89 64 49 47 144
199 199 199 194 195 209 211 202 203 203 200 204 199 195 188 193 187 196 199 191 193 185 186 193 184 167 180 186 178 166 187 187 193 170 110 41 79 121 103 82 65 65 75
212 204 200 200 202 205 215 206 212 212 202 212 202 204 202 205 196 200 201 198 200 187 189 192 185 187 177 172 172 170 175 162 161 186 121 52 124 122 108 100 80 72 70
231 223 211 211 200 206 221 224 213 215 216 211 212 202 215 217 203 212 207 210 204 196 190 194 190 183 184 172 171 169 168 168 165 168 125 113 102 98 103 96 90 78 80
227 215 228 209 211 207 214 231 228 225 221 204 216 207 197 206 199 218 212 217 216 215 196 192 186 188 181 178 171 170 164 161 157 158 117 120 101 82 91 94 88 83 83
237 222 195 206 207 215 204 212 223 238 222 229 217 207 213 208 204 201 215 211 208 202 198 203 197 183 183 181 172 169 171 168 160 163 136 136 131 118 95 96 89 91 89
247 236 241 233 211 211 212 214 219 236 234 226 222 226 215 210 196 212 221 215 200 204 202 198 199 199 182 183 177 171 168 168 170 170 163 151 148 151 127 91 81 63 96
71 66 14 340 259 228 224 213 214 230 237 245 237 218 222 219 205 187 231 215 203 205 199 199 199 196 194 183 170 167 180 170 170 169 168 168 173 167 166 137 141 81 65
55 62 61 69 274 245 214 184 206 220 222 235 244 243 240 224 216 214 212 220 203 211 207 194 193 193 193 180 166 157 158 173 187 180 177 174 167 168 156 157 146 147 117
54 47 50 45 33 348 219 193 206 209 227 226 223 230 222 221 224 212 206 216 208 211 205 198 197 190 196 182 184 170 176 177 198 204 191 184 174 163 162 169 147 159 158
45 35 38 32 34 31 47 192 134 140 195 223 227 222 221 206 208 212 214 229 217 209 201 199 201 195 190 187 210 195 171 207 165 185 198 188 176 180 166 158 164 161 158
44 36 29 24 25 28 10 353 220 256 262 253 250 239 236 224 223 214 222 218 221 209 213 202 199 200 199 196 205 210 248 181 192 171 195 190 192 189 184 172 167 169 165
26 15 10 8 16 17 13 4 334 312 307 323 310 293 267 246 224 223 217 221 217 213 220 205 202 205 205 201 202 204 196 189 204 184 176 174 209 197 180 183 172 170 174
18 2 353 349 351 355 351 344 332 314 301 293 290 292 279 274 256 240 228 222 219 221 221 223 209 207 209 208 205 203 198 192 190 193 182 168 181 200 186 180 186 182 174